Location: Bidwell Hollow
(37.7387°N, 90.1707°W)
Time: 07:10:30
(UTC+00:00)

Envisat - Pass Details

Date: 10 October 2024
Orbit: 762 x 763 km, 98.3° (Epoch: 03 November)

Event Time Altitude Azimuth Distance (km) Brightness Sun altitude
Rises 08:23:52 0° 23° (NNE) 3,231 6.8 -43.1°
Reaches altitude 10° 08:26:24 10° 33° (NNE) 2,301 6.0 -42.6°
Enters shadow 08:26:48 12° 36° (NE) 2,162 5.8 -42.6°
